O3B FM2

Last updated on Wed Jun 24 2026 00:03:25 GMT+0000 (Coordinated Universal Time)

1 39190U 13031C 26172.62250630 -.00000023 00000+0 00000+0 0 9996 2 39190 0.0370 341.3224 0002757 105.4432 273.2639 5.00116095237330
UTC large
Height (km)
Speed (km/s)
/
Latitude / Longitude
Inclination (degrees)
Orbital Period (minutes)
Azimuth
Elevation
Range (km)
Doppler Factor

Next 0 passes for location: London (51.5072 / 0.1276)

No passes found over London.
O3B FM2